Location: Chrząstowo
(52.0654°N, 17.1290°E)
Time: 09:50:04
(UTC+01:00)

Envisat - Pass Details

Date: 20 December 2019
Orbit: 764 x 766 km, 98.1° (Epoch: 24 January)

Event Time Altitude Azimuth Distance (km) Brightness Sun altitude
Rises 19:06:46 0° 213° (SSW) 3,225 6.6 -30.1°
Reaches altitude 10° 19:09:53 10° 233° (SW) 2,304 6.1 -30.6°
Maximum altitude 19:13:07 17° 273° (W) 1,876 5.7 -31.1°
Drops below altitude 10° 19:16:23 10° 313° (NW) 2,315 6.0 -31.6°
Sets 19:19:33 0° 334° (NNW) 3,247 6.6 -32.0°
